This is the latest recevied weather packets stored in our database for station/object W5ITZ. If no packets are shown the sender has not sent any weather packets the latest 10 day(s).
| Time | Temp. | Humidity | Pressure | Rain* | Wind** | Luminosity | Snow |
|---|---|---|---|---|---|---|---|
| 1777494433 | 29.44° C | 67% | 1010.5 hPa | 0 mm | - | 663 W/m² | - |
| 1777494129 | 29.44° C | 67% | 1010.3 hPa | 0 mm | - | 603 W/m² | - |
| 1777493827 | 29.44° C | 67% | 1010.4 hPa | 0 mm | - | 518 W/m² | - |
| 1777493525 | 29.44° C | 66% | 1010.8 hPa | 0 mm | - | 472 W/m² | - |
| 1777493222 | 29.44° C | 66% | 1010.8 hPa | 0 mm | - | 640 W/m² | - |
| 1777492918 | 30° C | 66% | 1010.8 hPa | 0 mm | - | 659 W/m² | - |
| 1777492615 | 29.44° C | 67% | 1010.8 hPa | 0 mm | - | 675 W/m² | - |
| 1777492310 | 29.44° C | 66% | 1011.3 hPa | 0 mm | - | 721 W/m² | - |
| 1777492007 | 30° C | 67% | 1010.9 hPa | 0 mm | - | 482 W/m² | - |
| 1777491704 | 30° C | 65% | 1011 hPa | 0 mm | - | 582 W/m² | - |
| 1777491402 | 30° C | 64% | 1011.1 hPa | 0 mm | - | 916 W/m² | - |
| 1777491098 | 29.44° C | 66% | 1011.2 hPa | 0 mm | - | 651 W/m² | - |
| 1777490794 | 30° C | 65% | 1011.6 hPa | 0 mm | - | 522 W/m² | - |
| 1777490491 | 30° C | 65% | 1011.2 hPa | 0 mm | - | 1110 W/m² | - |
| 1777490187 | 30° C | 66% | 1011.3 hPa | 0 mm | - | 573 W/m² | - |
| 1777489884 | 30° C | 67% | 1010.8 hPa | 0 mm | - | 987 W/m² | - |
| 1777489582 | 30° C | 66% | 1010.9 hPa | 0 mm | - | 1031 W/m² | - |
| 1777489278 | 30° C | 66% | 1011.2 hPa | 0 mm | - | 674 W/m² | - |
| 1777488975 | 28.89° C | 68% | 1011 hPa | 0 mm | - | 752 W/m² | - |
| 1777488672 | 29.44° C | 69% | 1011.2 hPa | 0 mm | - | 389 W/m² | - |
| 1777488370 | 28.89° C | 68% | 1011.3 hPa | 0 mm | - | 431 W/m² | - |
| 1777488069 | 29.44° C | 69% | 1011.2 hPa | 0 mm | - | 355 W/m² | - |
| 1777487765 | 30° C | 67% | 1011.2 hPa | 0 mm | - | 476 W/m² | - |
| 1777487463 | 29.44° C | 67% | 1011.4 hPa | 0 mm | - | 1106 W/m² | - |
| 1777487161 | 29.44° C | 68% | 1011.1 hPa | 0 mm | - | 968 W/m² | - |
* Rain latest hour (hover to see other rain measurements)
** Current wind speed in m/s (hover to see current wind gust speed)